Weather History for Fort Myers, FL

Change the Weather History Date:

Monday, January 28, 2013

  Actual Average Record
Temperature  
Mean Temperature 73 °F 65 °F  
Max Temperature 83 °F 75 °F 86 °F (1975)
Min Temperature 63 °F 54 °F 29 °F (1940)
Degree Days  
Heating Degree Days 0 3  
Month to date heating degree days 11 103  
Since 1 July heating degree days 69 196  
Cooling Degree Days 8 3  
Month to date cooling degree days 157 83  
Year to date cooling degree days 157 83  
Growing Degree Days 22 (Base 50)    
Moisture  
Dew Point 59 °F    
Average Humidity 65    
Maximum Humidity 90    
Minimum Humidity 45    
Precipitation  
Precipitation 0.00 in 0.06 in 1.58 in (1910)
Month to date precipitation 0.46 1.74  
Year to date precipitation 0.46 1.74  
Sea Level Pressure  
Sea Level Pressure 30.26 in    
Wind  
Wind Speed 7 mph (ESE)    
Max Wind Speed 17 mph    
Max Gust Speed 23 mph    
Visibility 10 miles    
Events      
T = Trace of Precipitation, MM = Missing Value Source: NWS Daily Summary

Daily Weather History Graph

Daily Weather History Graph

Search for Another Location

Airport:

Trip Planner

Search our weather history database for the weather conditions in past years. The results will help you decide how hot, cold, wet, or windy it might be!

Date:

Astronomy

Jan. 28, 2013 Rise Set
Actual Time 7:14 AM EST 6:07 PM EST
Civil Twilight 6:49 AM EST 6:31 PM EST
Nautical Twilight 6:21 AM EST 6:59 PM EST
Astronomical Twilight 5:54 AM EST 7:26 PM EST
Moon 7:44 PM EST (1/28) 7:52 AM EST (1/28)
Length of Visible Light 11h 41m
Length of Day
10h 53m
Full, 98% of the Moon is Illuminated
Jan 28
Full
Feb 3
Last Quarter
Feb 10
New
Feb 17
First Quarter
Feb 25
Full

Hourly Weather History & Observations

Time (EST) Temp. Heat Index Dew Point Humidity Pressure Visibility Wind Dir Wind Speed Gust Speed Precip Events Conditions
12:53 AM 66.0 °F - 57.9 °F 75% 30.27 in 10.0 mi East 5.8 mph - N/A   Clear
1:53 AM 64.9 °F - 57.9 °F 78% 30.26 in 10.0 mi East 4.6 mph - N/A   Clear
2:53 AM 66.0 °F - 59.0 °F 78% 30.26 in 10.0 mi East 5.8 mph - N/A   Clear
3:53 AM 64.9 °F - 59.0 °F 81% 30.25 in 10.0 mi East 6.9 mph - N/A   Clear
4:53 AM 64.9 °F - 60.1 °F 84% 30.26 in 10.0 mi East 5.8 mph - N/A   Scattered Clouds
5:53 AM 64.0 °F - 59.0 °F 84% 30.26 in 10.0 mi East 6.9 mph - N/A   Clear
6:53 AM 63.0 °F - 59.0 °F 87% 30.28 in 10.0 mi East 5.8 mph - N/A   Clear
7:53 AM 64.9 °F - 60.1 °F 84% 30.29 in 9.0 mi East 5.8 mph - N/A   Clear
8:53 AM 70.0 °F - 61.0 °F 73% 30.30 in 10.0 mi ESE 8.1 mph - N/A   Partly Cloudy
9:53 AM 75.9 °F - 61.0 °F 60% 30.31 in 10.0 mi ESE 12.7 mph - N/A   Partly Cloudy
10:53 AM 78.1 °F - 61.0 °F 56% 30.31 in 10.0 mi SE 15.0 mph 23.0 mph N/A   Clear
11:53 AM 80.1 °F 80.9 °F 60.1 °F 50% 30.29 in 10.0 mi ESE 11.5 mph 19.6 mph N/A   Clear
12:53 PM 81.0 °F 81.3 °F 59.0 °F 47% 30.27 in 10.0 mi East 10.4 mph - N/A   Scattered Clouds
1:53 PM 81.0 °F 81.3 °F 59.0 °F 47% 30.23 in 10.0 mi ESE 9.2 mph - N/A   Clear
2:53 PM 82.0 °F 82.1 °F 59.0 °F 45% 30.21 in 10.0 mi ESE 9.2 mph - N/A   Partly Cloudy
3:53 PM 81.0 °F 81.3 °F 59.0 °F 47% 30.20 in 10.0 mi ESE 8.1 mph - N/A   Scattered Clouds
4:53 PM 81.0 °F 81.3 °F 59.0 °F 47% 30.20 in 10.0 mi East 9.2 mph - N/A   Overcast
5:53 PM 80.1 °F 80.6 °F 57.9 °F 47% 30.22 in 10.0 mi SE 5.8 mph - N/A   Overcast
6:53 PM 75.0 °F - 57.9 °F 55% 30.23 in 10.0 mi Calm Calm - N/A   Clear
7:53 PM 73.0 °F - 55.9 °F 55% 30.25 in 10.0 mi Calm Calm - N/A   Clear
8:53 PM 69.1 °F - 57.0 °F 65% 30.25 in 10.0 mi East 4.6 mph - N/A   Clear
9:53 PM 69.1 °F - 57.9 °F 68% 30.25 in 10.0 mi ESE 6.9 mph - N/A   Partly Cloudy
10:53 PM 68.0 °F - 59.0 °F 73% 30.25 in 10.0 mi ESE 5.8 mph - N/A   Clear
11:53 PM 66.9 °F - 60.1 °F 79% 30.25 in 10.0 mi ESE 3.5 mph - N/A   Clear